Find Smirenniy L.N.

NORAD ID: 57204 Int'l Des: 2023-091 Owner: SITRO Country: RU operational
LEOCIRCULARRETROGRADESSO

实时位置

正在加载3D地球...

关于 Smirenniy L.N.

正在加载描述...

即将过境

Passes for default location (London). Set your location on the main map for personalized predictions.

高度历史

Loading altitude history...

两行轨道根数

1 57204U 23091AQ 26121.27684882 .00029459 00000-0 82166-3 0 9995
2 57204 97.5119 190.9620 0006005 222.5164 137.5616 15.36694544157562
Epoch: May 1, 2026 • Age: 7 hours

当前状态

高度 471.5 km
速度 7.63 km/s
星下点 69.93°N, 112.66°E
发射日期 Jun 27, 2023
运行时间 2.8 years
类型 other

技术详情

分类 Payload
质量 3.00 kg
干质量 3.00 kg
总质量 3.00 kg
长度 0.30 m
直径 0.10 m
跨度 0.30 m
形状 Box
制造商 SPUT
平台类型 Cubesat 3U
阶段状态 In Orbit
所有者/国家 SITRO/RU

Most Searched